Theta_e
328 327 326 324 323 322 322 323 325 325 325 325 325 325 325 326 326 326 326 326 325 325 326 326 327 328 328 329 330 329 330 330 329 329 329 328 328 328 329 329 329 330 330 330 330 331 330 329 327 326 326 326 327 327 327 326 326 327 326 326 326 327 327
328 326 325 324 323 322 322 323 325 326 325 324 324 325 325 325 325 325 325 325 324 323 325 326 327 327 328 328 329 330 330 329 329 330 329 328 329 329 329 328 328 329 328 329 329 329 329 329 328 326 325 326 326 326 325 325 325 325 322 321 322 323 324
326 325 324 323 324 324 324 323 324 325 325 325 324 324 325 325 324 324 324 323 323 324 324 325 326 326 326 326 327 329 330 330 330 330 329 329 329 329 328 327 327 328 327 328 328 328 328 328 328 326 325 325 326 325 324 324 324 324 322 319 318 318 318
324 324 324 324 324 324 323 323 324 325 325 324 323 323 323 323 322 322 322 323 323 324 324 323 324 324 324 325 326 327 328 329 329 329 328 328 328 328 327 327 327 328 328 327 327 327 328 328 328 327 323 323 324 324 322 320 320 321 320 319 317 315 314
324 324 324 324 323 323 323 324 325 324 324 322 321 321 322 321 320 320 323 324 324 323 322 322 321 322 322 323 324 325 326 327 327 327 327 326 327 327 328 327 326 327 327 328 327 327 329 328 327 325 322 320 321 321 320 319 319 319 319 318 317 316 315
324 324 324 324 323 323 323 325 325 324 322 321 320 321 321 321 321 320 322 323 323 323 322 321 320 320 321 322 322 323 324 325 325 324 324 324 324 325 326 325 325 325 326 327 328 328 327 325 325 324 321 319 319 318 318 318 317 317 318 317 317 316 315
324 324 324 324 323 322 323 324 325 324 321 320 320 319 320 320 320 321 320 321 320 321 321 320 318 318 319 320 320 320 320 320 321 322 321 321 320 321 322 321 322 322 324 325 326 325 324 323 324 323 321 320 319 317 316 315 314 315 317 317 317 316 316
324 324 324 324 323 321 322 323 323 322 320 319 319 319 318 319 319 319 320 319 320 320 319 319 317 317 318 318 317 318 318 317 318 319 318 318 317 317 318 318 318 318 321 323 324 323 323 323 323 321 321 323 322 319 316 313 313 313 314 315 315 315 314
324 323 323 322 321 321 322 322 322 322 320 319 319 318 318 317 317 317 318 318 319 318 319 318 317 317 317 316 315 316 317 317 316 317 317 317 316 316 316 316 316 316 317 319 321 321 322 322 321 321 321 321 322 322 318 315 313 311 312 313 313 313 312
324 324 323 322 321 321 322 322 321 320 319 319 319 318 317 317 316 316 317 317 317 317 318 318 317 317 315 315 315 315 315 316 316 317 317 317 317 316 316 316 316 316 316 316 317 318 319 320 320 320 319 318 319 322 320 319 317 312 309 311 310 310 310
325 323 323 322 321 321 321 321 320 319 319 319 319 318 318 317 316 316 316 317 317 317 317 317 316 316 316 316 316 315 316 316 316 317 317 317 318 317 317 317 316 315 315 315 315 315 316 317 318 317 317 318 318 320 319 318 317 312 308 309 308 308 309
325 323 323 322 322 321 321 321 321 320 319 319 319 319 318 318 317 317 317 317 317 317 317 316 316 316 316 316 316 315 315 316 316 316 316 317 318 318 318 318 316 316 315 315 315 315 314 315 315 315 316 317 318 318 315 315 317 314 309 308 308 308 308
324 323 324 323 322 321 321 321 321 320 319 320 319 319 319 319 318 317 317 317 317 318 317 317 316 317 317 317 316 316 315 316 316 316 316 316 316 316 317 317 317 315 315 314 314 314 314 314 315 314 315 316 317 318 315 313 314 313 309 308 308 308 308
325 323 324 323 322 321 321 320 320 320 320 320 320 319 319 319 318 318 317 317 318 318 318 318 318 318 317 317 317 316 315 315 315 316 316 316 316 315 316 316 316 315 315 316 314 313 313 313 314 314 315 315 315 316 315 312 312 311 310 309 309 309 309
325 322 323 322 321 321 321 320 320 320 320 319 319 319 318 318 319 318 318 318 318 319 319 319 318 318 317 317 317 317 316 316 316 315 315 315 316 316 315 315 315 315 315 315 315 314 314 314 313 314 315 315 315 316 314 312 311 311 311 310 310 310 311
325 322 321 321 320 321 322 322 322 321 320 319 319 319 318 318 319 318 318 318 318 319 319 319 319 318 318 318 318 318 317 316 316 315 315 315 315 315 315 314 314 315 315 315 315 314 315 316 315 315 316 316 317 317 316 314 313 312 312 312 312 311 312
326 324 322 319 319 322 323 323 322 320 320 319 318 318 318 318 318 318 319 319 318 318 319 320 320 319 318 319 319 319 318 318 317 317 316 316 315 315 316 316 315 315 316 315 315 315 315 316 316 316 316 317 317 317 317 316 315 315 314 314 313 312 312
326 326 324 320 320 323 322 319 318 319 321 320 318 318 318 317 318 318 319 319 319 319 319 320 321 320 320 320 320 319 320 319 319 318 318 317 316 316 317 317 316 316 316 316 314 315 316 316 316 316 315 316 316 316 317 316 316 316 316 315 314 314 313
327 327 326 323 323 323 321 317 315 318 322 321 319 319 318 317 318 318 319 319 319 320 320 320 321 321 321 322 321 321 320 321 321 321 320 320 319 318 318 319 318 317 317 317 316 316 317 316 316 316 315 315 316 316 316 316 316 316 316 316 315 314 314
327 327 327 326 325 323 321 319 318 319 322 322 321 321 320 319 319 319 319 320 319 320 320 320 321 321 322 322 323 322 322 322 322 322 322 321 320 320 320 320 320 319 318 318 318 317 317 316 317 315 314 314 314 315 315 315 315 316 316 316 315 315 314
327 327 327 326 326 324 323 322 321 321 321 320 321 321 321 319 320 320 320 320 320 320 320 321 321 322 322 322 323 324 323 323 323 323 323 322 322 321 321 321 321 320 320 319 318 318 317 316 316 315 314 314 313 314 314 315 315 315 315 315 315 315 315
326 325 325 324 324 323 323 323 322 321 321 321 321 321 321 320 320 320 320 320 320 321 321 321 320 321 322 322 322 323 323 323 323 322 322 322 322 321 320 320 320 320 320 320 319 319 318 317 316 317 317 316 315 315 314 314 315 315 315 316 316 315 315
325 325 324 324 323 322 322 323 323 322 323 324 322 321 321 320 320 321 321 321 321 321 320 320 320 321 322 322 321 323 323 322 321 321 320 321 322 320 320 320 320 320 321 320 319 319 318 317 317 318 318 318 317 316 315 314 315 315 315 315 315 315 315
324 324 324 324 323 323 323 324 323 323 324 324 323 322 322 321 321 321 321 322 321 321 320 320 320 322 322 322 322 323 322 321 321 320 320 321 321 321 319 319 319 320 321 320 320 320 319 318 317 316 318 318 316 315 315 315 315 315 315 315 315 315 315
324 325 324 324 323 323 323 324 324 324 323 323 323 322 322 322 322 322 322 321 321 320 319 318 319 320 319 319 321 322 321 321 321 321 320 319 320 320 319 319 319 320 321 321 320 320 319 318 317 315 315 317 316 315 314 314 314 314 314 314 313 314 314
324 325 325 324 324 323 323 323 323 323 323 322 322 322 322 322 323 323 322 321 320 320 319 319 320 318 315 316 321 322 320 319 319 319 319 319 319 319 319 319 318 319 321 320 319 320 319 318 317 316 315 315 315 314 314 313 313 312 312 311 310 311 312
324 324 324 324 323 323 322 322 322 323 323 323 322 321 321 322 322 322 322 321 320 319 318 318 318 317 315 317 320 320 318 317 317 318 317 317 317 317 318 318 317 319 321 319 317 319 320 318 317 316 316 315 315 315 314 313 313 312 311 310 309 309 311
322 323 323 322 322 321 322 322 322 322 323 322 322 322 322 322 322 322 322 322 321 319 318 318 318 318 318 319 319 318 317 317 318 317 317 316 317 317 318 317 317 319 320 319 318 319 319 318 318 317 315 314 314 315 314 313 312 311 310 309 308 309 310
318 320 321 321 322 322 322 323 322 322 322 322 322 322 322 322 322 321 322 322 321 321 321 320 318 318 319 318 319 319 318 317 317 317 316 317 317 317 317 316 317 319 319 319 318 318 316 315 316 317 316 314 314 314 312 311 310 309 308 308 308 309 310
313 314 315 316 318 321 322 322 322 321 322 322 322 321 321 321 321 321 322 321 321 321 321 320 319 318 319 319 319 318 316 316 317 317 316 317 317 317 316 315 316 317 318 317 314 312 309 308 311 315 316 314 313 313 311 310 309 308 307 307 308 308 308
312 313 313 313 314 316 318 319 320 321 321 321 321 321 320 320 320 321 321 321 320 318 318 318 318 317 317 317 317 314 312 315 317 315 315 316 317 316 316 314 314 315 316 313 310 307 305 305 310 314 314 313 312 312 311 310 309 308 306 305 305 305 304
312 312 312 313 313 314 314 315 317 318 319 319 319 320 319 319 319 320 320 319 318 316 315 315 315 315 314 313 313 310 310 313 314 314 315 316 316 315 314 313 312 314 314 311 308 307 305 306 311 314 313 312 312 311 310 309 308 307 306 305 304 304 303
311 311 311 311 312 312 313 312 313 315 316 316 316 317 317 317 318 318 318 318 317 316 313 312 312 312 310 309 309 307 307 310 313 313 314 315 314 313 313 312 312 311 311 309 307 307 306 307 311 312 311 310 311 309 309 308 307 307 306 305 304 304 303
309 309 309 310 310 311 312 312 312 312 313 314 314 314 315 315 315 316 316 316 315 314 312 311 308 306 304 304 303 303 303 308 312 313 313 314 314 313 311 311 311 310 309 308 307 306 306 307 310 310 309 308 309 308 307 306 306 306 305 304 303 304 303
307 307 308 308 309 309 310 310 311 311 311 312 312 312 313 312 313 313 313 313 313 312 311 309 305 301 301 301 301 302 304 308 312 313 312 312 313 312 311 310 309 309 308 307 306 307 307 307 308 308 307 306 305 305 305 304 304 304 304 303 303 303 303
304 305 307 307 308 308 309 308 309 310 310 311 311 311 312 311 311 311 311 312 312 310 310 310 306 302 301 301 302 304 307 309 310 310 310 311 311 311 310 309 308 307 307 306 306 306 306 306 306 306 305 303 303 302 301 301 302 303 303 303 302 302 301
304 304 305 306 306 308 308 308 308 308 308 310 310 311 312 311 311 311 310 311 311 310 310 311 308 305 302 302 303 304 306 308 310 308 309 310 310 310 310 308 306 306 307 306 305 305 305 305 304 304 303 303 302 301 300 300 301 302 302 301 301 300 300
Wind_Speed
9 10 9 9 10 9 8 8 8 8 7 7 7 8 8 8 8 8 7 6 5 6 9 11 10 10 10 11 10 9 10 8 7 8 7 6 6 5 4 6 5 3 4 5 3 3 3 3 7 10 12 13 15 14 15 17 18 18 17 14 12 12 12
11 10 9 9 9 8 7 8 8 8 8 8 7 8 8 7 8 8 7 7 8 8 11 13 11 11 13 14 13 12 11 10 9 9 8 8 8 6 5 6 6 3 3 4 4 5 6 4 4 5 10 13 13 14 15 17 19 20 19 17 14 12 11
12 10 10 10 9 8 7 8 8 8 8 8 7 7 7 8 10 10 8 8 8 9 11 11 11 13 13 14 14 13 13 12 12 11 10 10 8 7 7 8 8 5 3 3 4 6 7 6 5 5 9 11 9 11 15 16 18 17 18 17 16 14 14
12 12 12 10 9 8 8 8 8 8 7 7 7 7 7 8 11 11 9 9 9 9 10 10 11 13 12 12 14 15 15 15 15 14 13 12 11 11 10 9 9 7 5 4 5 7 7 7 7 5 9 13 11 12 15 17 18 17 17 17 15 14 14
13 13 12 11 10 9 8 9 9 8 8 7 7 8 8 9 10 10 10 10 10 10 10 11 11 11 12 13 14 15 16 16 16 15 13 13 13 13 12 10 11 9 7 6 7 8 8 11 11 7 10 13 11 13 18 18 19 19 19 18 15 13 13
13 13 12 10 10 9 8 8 8 8 8 8 8 8 9 9 10 11 11 11 11 10 10 11 10 11 12 13 14 15 16 15 15 15 13 12 11 12 12 12 13 13 10 10 10 9 11 13 10 7 11 14 9 11 15 16 16 17 18 18 16 14 12
14 12 12 10 10 9 8 8 8 8 9 9 9 8 9 10 11 12 12 11 11 11 11 11 12 13 13 14 14 15 16 15 16 15 14 14 13 13 13 12 12 13 12 13 12 11 13 12 9 8 11 12 11 12 13 15 16 15 15 16 15 14 12
15 13 11 10 10 9 9 9 8 9 10 9 9 9 9 10 11 11 11 11 11 11 11 11 12 13 13 14 14 15 15 15 16 16 15 15 15 14 14 13 12 12 12 12 12 12 13 11 11 14 13 8 7 8 9 13 16 15 14 14 13 12 12
15 14 12 11 10 9 9 9 9 10 11 10 10 10 9 10 11 11 11 11 10 10 10 11 11 12 13 14 14 15 15 14 15 16 15 15 14 14 14 13 13 13 13 12 11 11 12 12 13 13 13 10 7 5 5 8 10 11 14 16 13 11 10
15 14 13 12 11 10 9 9 10 11 11 11 11 10 10 10 10 10 11 11 10 10 10 11 11 11 12 13 13 14 14 14 15 15 14 14 14 14 14 15 14 13 13 13 12 11 10 10 10 5 4 8 6 3 4 4 5 9 12 14 14 11 9
13 12 13 13 12 11 9 9 10 11 12 12 12 11 11 11 10 10 11 11 10 10 10 10 11 11 12 12 12 12 12 13 14 14 14 14 14 14 14 15 15 15 14 13 12 10 10 8 6 6 9 11 11 7 10 7 4 9 11 11 12 12 9
13 12 14 14 12 11 10 10 10 12 12 12 11 12 11 11 11 10 10 11 10 11 11 11 10 11 11 11 11 11 11 12 13 13 13 13 13 13 13 13 13 13 13 12 11 9 10 9 7 7 8 10 13 13 16 13 6 6 10 10 9 10 10
13 13 14 14 13 12 11 10 10 11 12 12 12 12 11 11 11 11 11 11 10 10 10 10 10 10 10 10 10 10 10 10 11 12 12 12 12 12 12 12 11 11 11 11 10 9 10 11 9 9 8 10 14 15 19 17 10 7 9 9 7 8 8
15 15 15 15 14 13 12 11 11 11 12 12 12 12 11 11 11 11 11 11 10 10 9 9 9 8 9 9 9 9 8 9 10 10 10 10 10 11 11 11 10 9 8 7 7 8 7 8 9 10 10 10 12 15 18 19 14 9 8 8 7 7 6
18 16 17 17 16 15 14 13 12 12 12 12 12 11 11 11 11 11 11 11 10 10 9 9 8 8 8 8 8 7 7 8 8 8 8 8 9 9 9 9 8 7 6 6 7 7 5 6 9 11 11 11 11 12 15 18 17 12 9 8 7 6 4
20 18 18 19 18 17 16 15 14 13 12 12 12 11 10 11 11 11 11 10 10 10 9 9 8 8 8 8 7 6 6 6 7 7 6 7 7 7 7 8 7 6 6 6 7 7 6 9 11 10 10 10 9 10 11 14 16 16 14 10 8 9 6
20 19 18 20 19 18 18 18 17 15 12 12 12 11 11 11 11 10 10 10 10 9 9 9 8 8 8 7 7 6 6 5 5 5 4 4 5 6 6 6 5 5 5 5 5 5 4 6 8 7 6 7 6 7 7 5 8 12 13 10 8 9 7
21 21 21 21 21 20 20 19 19 16 13 12 12 12 12 12 11 11 10 10 10 10 9 9 8 8 8 7 7 6 6 5 5 4 3 3 3 4 4 4 4 5 4 4 4 4 3 3 5 5 5 7 9 8 4 4 6 6 6 7 8 7 2
25 24 22 20 19 19 19 18 19 17 14 14 14 12 13 12 12 12 11 10 10 9 9 8 8 8 8 7 7 7 7 6 6 5 4 4 3 3 3 3 4 4 3 3 3 4 5 3 4 5 6 9 11 9 6 2 4 3 3 4 6 5 1
22 20 19 18 18 20 20 18 17 16 14 13 13 12 13 12 12 12 11 10 10 9 9 8 8 9 8 7 7 7 6 6 6 5 5 5 4 4 4 4 4 5 4 3 3 3 4 3 2 3 5 8 9 8 5 1 4 3 3 1 1 3 1
11 10 12 13 11 10 12 13 12 13 13 13 12 12 12 12 12 11 9 8 7 6 6 4 3 4 6 6 7 7 6 6 6 5 4 4 4 4 3 5 4 3 4 4 5 5 4 4 2 0 0 2 3 3 3 0 2 2 1 4 2 1 1
11 11 12 11 7 3 7 8 8 8 8 10 11 12 12 11 11 10 9 7 6 5 4 3 4 4 5 7 8 9 8 6 5 4 5 6 7 7 6 7 6 4 4 5 7 8 7 6 4 3 2 2 1 1 0 1 2 3 4 5 4 1 3
14 13 11 11 11 10 12 12 12 9 5 6 8 10 11 11 10 9 7 5 3 3 3 2 5 6 7 7 7 8 7 7 8 8 9 11 12 10 8 6 6 8 8 7 9 10 8 8 7 5 5 4 3 3 3 2 4 5 5 6 7 5 3
13 12 11 11 12 12 12 13 13 12 8 7 8 8 10 10 8 7 6 4 5 5 4 7 10 10 8 7 8 8 5 5 9 12 12 14 14 12 10 9 8 9 10 10 11 11 10 10 10 9 8 7 7 6 5 4 2 3 4 5 7 8 6
10 9 8 8 8 9 10 10 9 9 9 10 11 10 8 7 6 5 5 6 7 9 11 15 17 17 15 12 12 12 8 6 9 11 11 13 13 9 10 12 11 9 9 10 12 12 10 8 9 10 10 9 8 8 8 7 5 3 1 2 5 8 8
8 8 7 6 6 5 6 7 7 8 10 13 14 13 11 9 7 4 4 6 8 9 12 15 18 19 17 14 15 16 13 11 13 13 11 10 10 9 9 11 11 9 8 8 9 8 6 4 4 6 9 10 10 10 10 9 9 7 5 3 3 6 7
8 8 7 7 7 6 5 6 7 7 10 13 15 15 15 13 10 7 4 5 7 8 10 12 15 16 15 15 16 16 13 12 13 12 9 6 8 10 11 11 11 10 9 7 6 5 5 4 4 3 4 6 8 10 11 12 12 12 11 10 8 5 4
7 7 7 8 8 7 8 9 10 10 12 14 14 15 15 14 13 11 9 8 9 12 14 14 14 14 13 14 13 11 11 11 10 9 7 7 8 9 10 10 11 12 10 8 7 6 5 4 4 3 2 1 4 7 9 9 10 11 10 10 9 7 6
5 5 7 8 9 10 10 9 10 11 11 11 10 11 12 12 13 12 11 12 13 15 16 16 14 13 12 11 10 9 10 9 9 10 10 9 9 10 10 9 11 14 12 10 9 8 6 4 4 4 4 4 5 7 6 5 6 7 8 7 7 8 8
8 6 4 2 3 8 9 7 7 8 9 9 9 10 10 11 12 12 12 14 14 13 14 16 14 12 11 11 10 11 11 9 11 12 11 10 10 13 12 9 10 13 11 8 8 6 5 5 5 5 5 7 8 7 5 5 5 6 7 8 8 8 8
12 10 10 10 8 5 4 4 5 6 6 7 9 11 11 11 11 11 13 14 12 11 13 15 13 12 12 12 12 13 13 12 13 13 14 10 9 12 13 9 7 9 9 7 5 3 2 3 5 4 4 7 9 8 6 7 6 5 7 10 10 10 11
13 13 14 14 13 10 7 4 1 4 5 5 8 10 9 8 9 11 13 13 13 13 12 13 15 15 14 14 13 15 15 15 12 15 17 12 9 10 11 10 8 7 7 4 2 2 2 3 5 4 4 5 6 6 7 7 5 2 2 5 7 8 10
12 12 14 14 13 11 10 10 9 5 4 6 9 10 11 11 11 12 14 17 19 19 15 15 18 17 16 17 16 17 19 16 11 13 17 14 12 10 9 10 10 7 6 4 3 3 4 4 5 4 3 4 6 8 6 4 4 3 1 2 5 8 10
10 10 11 12 11 11 10 11 13 11 7 7 9 10 11 13 14 15 18 20 21 20 16 15 17 18 17 18 16 18 20 15 9 10 15 14 14 12 10 10 10 8 6 5 5 5 5 6 5 4 4 6 9 10 8 4 3 3 3 5 7 9 9
11 10 10 9 9 10 10 11 13 13 12 10 11 11 10 9 12 14 16 17 18 17 15 15 17 18 18 18 17 18 19 13 6 9 14 15 16 15 12 11 12 10 8 7 7 7 7 7 6 4 3 4 4 5 3 1 2 5 6 5 6 8 9
12 11 10 10 10 11 11 11 12 13 14 13 13 13 13 10 11 13 13 15 17 16 16 16 17 18 18 18 17 16 16 13 8 9 11 11 15 18 15 14 13 11 10 9 9 9 9 8 6 4 2 1 2 3 4 3 3 5 6 5 6 8 9
13 13 12 12 12 12 11 12 13 14 15 16 15 15 15 14 13 13 13 13 16 17 18 19 19 19 19 20 18 17 16 13 10 10 9 8 14 19 18 15 13 12 12 12 11 10 10 8 6 4 2 3 5 5 4 3 3 4 5 5 6 8 8
Wind_Direction
132 122 119 113 113 117 119 120 121 118 112 108 104 101 100 97 88 84 82 76 84 105 102 87 75 74 76 79 89 93 89 93 110 116 114 117 127 131 116 109 116 112 98 92 94 128 130 120 111 100 100 105 105 105 105 107 111 111 111 110 111 113 108
131 134 131 125 126 128 127 127 123 115 108 105 101 102 102 100 98 94 84 67 57 73 94 91 85 85 81 79 85 91 93 94 102 110 109 107 116 129 119 110 115 106 100 102 89 90 93 107 123 111 111 109 105 111 113 112 111 107 104 99 94 102 105
142 144 135 133 135 132 125 120 118 113 110 104 98 102 99 90 92 92 91 86 70 68 83 95 98 91 83 80 81 85 90 90 95 101 104 107 113 122 117 109 114 127 143 120 111 111 96 90 108 124 127 121 119 124 119 117 116 108 104 100 91 92 96
150 144 137 139 140 138 135 132 132 126 116 108 101 100 96 88 89 91 93 94 87 82 86 95 99 93 87 87 83 82 84 85 88 91 96 101 105 109 109 106 117 140 156 135 136 141 123 112 121 128 126 124 130 134 124 120 121 116 111 109 103 96 93
150 145 143 145 147 148 149 143 137 129 119 116 111 107 104 98 96 97 96 96 94 90 88 89 94 96 94 92 90 86 85 85 86 88 91 93 96 102 103 102 105 117 133 127 125 130 125 131 144 153 134 125 126 134 135 131 127 124 121 118 112 105 95
150 149 148 151 151 153 154 147 142 139 134 126 119 115 111 107 104 102 99 98 98 96 93 89 93 102 100 94 92 90 88 89 89 89 88 88 93 101 105 104 98 95 102 109 113 123 129 139 157 156 128 129 129 124 126 122 114 111 112 111 110 108 105
151 151 151 153 153 154 156 155 154 149 139 132 128 122 114 111 107 103 102 101 99 97 94 87 88 96 98 95 93 92 91 91 92 91 87 84 84 90 98 98 93 91 97 102 105 117 127 141 162 147 123 129 134 126 123 114 103 98 99 102 107 108 110
153 152 152 154 155 156 158 161 158 148 142 138 133 124 118 115 110 106 104 103 101 99 97 92 90 93 95 97 95 93 92 91 92 91 87 84 79 82 90 89 81 80 92 106 112 115 121 131 142 139 137 139 135 138 137 118 107 106 109 110 112 117 119
156 152 150 153 155 157 161 163 154 148 148 144 136 130 124 118 113 110 108 107 104 102 102 99 96 95 95 97 97 95 94 94 93 91 88 84 79 81 87 87 79 71 77 94 104 109 123 140 150 154 158 153 144 152 136 110 114 122 122 119 116 118 121
154 151 150 151 156 158 161 161 154 152 153 148 143 137 130 124 120 117 114 112 109 105 103 101 97 95 94 94 95 95 95 95 94 93 92 89 85 85 87 88 86 79 79 82 81 80 91 123 145 150 121 112 102 125 135 111 111 117 118 122 121 119 117
148 147 148 150 156 158 159 158 155 157 155 152 150 146 140 134 127 124 119 115 113 110 107 103 101 99 96 94 94 95 96 97 96 94 94 92 90 91 90 89 89 87 85 83 80 75 68 85 108 54 50 65 52 72 129 128 88 97 101 107 119 131 133
144 144 148 153 157 157 159 160 159 163 162 160 159 155 150 142 134 131 127 122 119 117 112 107 105 102 99 97 96 96 98 98 99 98 96 93 90 91 90 90 91 90 89 86 84 82 68 71 91 73 62 63 57 84 122 120 94 102 105 100 108 126 134
146 152 154 157 159 158 163 167 167 169 168 167 167 163 157 151 145 140 135 131 126 122 119 114 112 108 104 104 101 102 103 99 99 100 98 95 91 90 88 87 86 86 90 89 89 91 76 72 85 89 84 73 68 93 114 107 94 96 108 121 122 120 133
154 162 163 163 163 162 165 170 174 175 172 174 173 169 167 161 156 150 145 142 137 133 130 124 119 115 113 115 109 105 104 102 104 104 101 100 99 97 96 93 88 89 94 87 92 110 102 96 104 100 98 91 80 98 113 110 108 105 109 138 138 125 151
162 166 170 168 164 166 169 171 176 177 176 179 176 175 177 172 166 161 154 150 147 144 140 133 130 129 124 121 115 110 110 110 111 109 105 110 109 104 104 105 102 102 98 71 73 92 80 82 102 95 90 93 86 97 118 124 128 131 135 147 142 139 157
169 167 174 173 168 172 175 175 177 176 177 182 179 181 186 180 175 170 162 160 156 153 151 145 143 144 138 131 125 121 119 120 121 117 115 124 119 111 111 111 107 108 101 71 66 80 62 60 85 93 83 84 79 80 104 127 137 147 154 159 160 153 147
173 171 177 178 176 178 180 181 179 173 176 184 183 185 190 186 184 180 173 170 166 163 164 159 156 157 151 147 146 143 140 137 136 133 132 134 127 125 128 124 122 119 109 98 87 95 94 66 85 114 107 105 115 93 78 91 121 143 153 156 155 144 147
181 181 180 182 183 182 181 183 178 171 175 185 188 190 191 190 192 189 184 180 176 174 173 169 169 173 168 165 166 162 162 165 163 166 165 150 139 142 145 143 147 143 130 132 118 114 142 92 75 105 105 108 126 122 96 44 57 102 136 135 138 136 168
188 186 183 184 184 180 177 179 177 177 181 187 192 193 190 193 197 194 192 190 186 183 184 186 184 184 182 181 183 181 181 183 179 184 193 185 183 184 180 181 167 156 149 153 141 120 132 113 73 83 83 93 110 113 113 85 28 54 98 100 131 143 207
192 187 186 186 183 178 177 179 180 184 187 189 194 193 191 199 203 198 197 197 194 189 192 200 204 201 196 188 193 196 195 197 195 197 203 199 208 217 204 208 204 186 181 172 163 148 145 148 111 90 86 98 108 100 95 65 339 35 87 38 115 141 146
189 187 191 190 184 168 167 176 184 190 193 191 194 195 196 205 208 205 209 212 218 221 208 218 290 260 224 212 211 209 206 215 219 221 232 234 246 264 286 304 294 202 196 201 183 175 179 186 183 164 125 117 103 77 88 170 331 17 272 272 280 228 276
185 184 180 187 202 153 143 168 182 188 197 198 199 202 208 214 213 213 219 220 237 260 248 258 309 283 238 231 224 217 221 239 264 303 300 275 264 260 270 297 294 247 246 245 203 188 190 189 176 165 200 225 283 348 126 218 270 290 284 290 307 287 270
188 182 170 182 198 181 170 182 186 181 191 200 197 202 211 220 221 219 216 202 219 283 324 284 251 232 231 238 232 234 250 256 261 277 276 263 262 259 248 253 249 228 236 248 225 214 215 212 206 200 192 187 182 178 178 216 270 299 318 322 328 344 358
181 181 177 182 185 177 181 194 196 194 201 211 210 211 213 218 223 223 214 197 212 227 226 233 236 234 239 245 244 252 263 241 242 253 258 258 264 265 248 236 232 221 219 227 233 236 243 242 235 227 212 195 187 187 190 196 232 309 342 348 345 353 5
171 165 166 173 174 180 192 199 203 209 218 226 231 231 227 223 225 227 231 238 241 229 219 225 235 243 250 254 257 260 259 256 259 262 266 266 263 254 235 225 220 214 213 224 235 241 244 242 237 233 224 216 211 207 208 215 221 234 314 18 11 5 6
153 145 147 156 160 178 198 202 212 222 228 235 238 234 228 224 216 209 224 235 234 228 225 227 234 244 251 253 259 264 264 264 264 262 270 270 248 224 216 216 208 198 202 217 225 228 229 225 227 231 229 232 236 232 227 233 240 245 259 277 316 355 2
136 146 157 158 153 162 181 197 210 214 217 225 230 228 226 225 221 215 219 217 208 215 230 234 234 241 248 251 259 264 256 249 253 256 260 245 216 205 201 203 198 188 189 196 191 197 217 225 222 226 233 240 245 246 245 245 248 253 259 266 272 291 310
131 145 158 162 163 168 178 187 191 194 203 211 217 221 225 228 229 227 226 227 228 232 238 239 236 239 245 248 252 247 229 223 230 235 221 195 193 193 191 198 197 186 182 179 170 175 188 200 216 220 201 208 228 238 248 254 258 258 257 261 261 249 240
94 111 137 157 171 175 179 187 187 192 204 208 210 217 223 229 235 234 228 224 227 232 236 237 238 240 240 233 220 207 200 201 214 220 208 194 191 188 188 187 178 172 172 171 173 178 176 175 202 205 170 162 205 228 246 268 274 265 251 243 234 219 218
36 40 54 76 151 162 167 181 189 201 214 211 205 212 219 224 228 231 233 232 231 233 239 240 235 227 218 206 197 191 187 202 224 215 193 181 173 170 169 157 149 160 166 166 174 187 195 191 195 203 193 186 196 214 246 272 270 260 246 236 229 230 241
18 17 15 14 22 55 105 159 182 199 215 214 213 220 230 236 234 234 239 240 237 235 237 232 220 208 202 198 196 193 198 222 226 188 165 169 172 168 168 157 145 163 169 165 172 184 199 191 182 194 216 202 193 200 231 255 260 256 251 247 246 252 260
14 9 6 9 13 11 2 345 260 197 194 209 223 226 231 240 239 234 233 225 212 210 216 211 202 200 201 201 202 201 211 236 228 175 159 169 176 173 180 180 171 172 173 171 187 196 204 193 177 185 220 214 194 187 207 235 250 263 269 261 262 269 279
11 5 359 359 0 354 344 335 325 293 229 225 229 219 209 206 206 207 213 211 202 200 204 204 202 205 208 208 210 211 218 238 237 178 161 162 167 170 176 180 179 180 187 203 220 208 198 189 180 181 184 161 131 125 144 185 183 154 152 285 279 284 295
355 351 343 342 343 341 335 329 326 321 303 275 261 247 223 207 201 203 208 204 194 190 197 204 206 209 211 209 209 209 216 235 246 195 177 168 167 174 178 180 183 186 191 202 209 201 192 190 191 179 142 131 126 124 127 148 186 211 274 295 282 282 291
331 328 324 324 321 318 314 310 313 315 310 297 286 282 271 233 215 216 210 194 185 191 204 210 210 208 205 205 206 206 212 225 227 196 193 180 166 169 178 180 182 187 191 193 194 192 190 193 198 190 141 122 132 140 145 182 256 275 292 294 285 291 300
311 306 303 303 299 297 297 295 297 301 303 300 289 283 283 269 247 241 223 192 185 196 207 210 212 211 204 201 202 201 208 217 201 182 192 186 171 172 178 176 176 183 189 188 187 187 189 194 200 201 200 314 322 313 307 301 273 270 274 277 289 299 300
303 298 294 295 292 289 288 286 284 283 284 288 285 276 272 268 258 252 241 218 202 202 205 207 213 215 210 205 204 205 209 215 206 194 192 182 175 178 178 175 174 181 186 185 184 184 184 186 190 193 225 291 305 312 322 329 303 281 277 277 283 287 290